iso_date,Year,Hour,Min,DOY,POS_DOY,Lat,Lon,BP,Ts,Ta,has_bp,has_ts,has_ta,BuoyID,Buoy_Type,Buoy_Owner,Logistics,Hemisphere
2022-10-11T19:00:02Z,2022,19,0,284.7917,284.7917,57.7366,-152.503,1019.0,8.3,8.4,yes,yes,yes,300534061986510,AXIB_53,USIABP,SIZRS,North
2022-10-11T19:59:57Z,2022,20,0,284.8333,284.8333,57.7366,-152.503,1019.4,7.8,7.9,yes,yes,yes,300534061986510,AXIB_53,USIABP,SIZRS,North
2022-10-12T19:59:57Z,2022,20,0,285.8333,285.8333,69.3584,-151.1388,1024.0,17.2,19.1,yes,yes,yes,300534061986510,AXIB_53,USIABP,SIZRS,North
2022-10-12T21:00:00Z,2022,21,0,285.875,285.875,72.2116,-149.9978,966.9,14.8,20.9,yes,yes,yes,300534061986510,AXIB_53,USIABP,SIZRS,North
2022-10-12T22:00:02Z,2022,22,0,285.9167,285.9167,73.054,-149.9902,999.2,-1.1,-0.1,yes,yes,yes,300534061986510,AXIB_53,USIABP,SIZRS,North
2022-10-12T22:59:57Z,2022,23,0,285.9583,285.9583,73.054,-150.0026,998.1,-1.1,-1.2,yes,yes,yes,300534061986510,AXIB_53,USIABP,SIZRS,North
2022-10-13T00:00:00Z,2022,0,0,286.0,286.0,73.0528,-150.0058,998.4,-1.1,-1.7,yes,yes,yes,300534061986510,AXIB_53,USIABP,SIZRS,North
2022-10-13T01:00:02Z,2022,1,0,286.0417,286.0417,73.0494,-150.0004,999.6,-1.2,-2.1,yes,yes,yes,300534061986510,AXIB_53,USIABP,SIZRS,North
2022-10-13T01:59:57Z,2022,2,0,286.0833,286.0833,73.044,-149.9894,1000.1,-1.2,-2.1,yes,yes,yes,300534061986510,AXIB_53,USIABP,SIZRS,North
2022-10-13T03:00:00Z,2022,3,0,286.125,286.125,73.0376,-149.9754,1000.4,-1.2,-2.0,yes,yes,yes,300534061986510,AXIB_53,USIABP,SIZRS,North
2022-10-13T04:00:02Z,2022,4,0,286.1667,286.1667,73.0292,-149.9652,1000.7,-1.2,-1.9,yes,yes,yes,300534061986510,AXIB_53,USIABP,SIZRS,North
2022-10-13T04:59:57Z,2022,5,0,286.2083,286.2083,73.0208,-149.9604,1000.4,-1.2,-2.2,yes,yes,yes,300534061986510,AXIB_53,USIABP,SIZRS,North
2022-10-13T06:00:00Z,2022,6,0,286.25,286.25,73.0124,-149.9616,1000.3,-1.2,-2.2,yes,yes,yes,300534061986510,AXIB_53,USIABP,SIZRS,North
2022-10-13T07:00:02Z,2022,7,0,286.2917,286.2917,73.0048,-149.9668,1000.1,-1.3,-2.3,yes,yes,yes,300534061986510,AXIB_53,USIABP,SIZRS,North
2022-10-13T07:59:57Z,2022,8,0,286.3333,286.3333,72.998,-149.9746,1000.2,-1.3,-2.3,yes,yes,yes,300534061986510,AXIB_53,USIABP,SIZRS,North
2022-10-13T09:00:00Z,2022,9,0,286.375,286.375,72.9922,-149.984,1000.4,-1.3,-2.3,yes,yes,yes,300534061986510,AXIB_53,USIABP,SIZRS,North
2022-10-13T10:00:02Z,2022,10,0,286.4167,286.4167,72.9886,-149.993,1000.5,-1.3,-1.7,yes,yes,yes,300534061986510,AXIB_53,USIABP,SIZRS,North
2022-10-13T10:59:57Z,2022,11,0,286.4583,286.4583,72.986,-149.9966,1000.5,-1.3,-1.4,yes,yes,yes,300534061986510,AXIB_53,USIABP,SIZRS,North
2022-10-13T12:00:00Z,2022,12,0,286.5,286.5,72.9844,-149.9958,1000.7,-1.3,-1.4,yes,yes,yes,300534061986510,AXIB_53,USIABP,SIZRS,North
2022-10-13T13:00:02Z,2022,13,0,286.5417,286.5417,72.9822,-149.9894,1000.9,-1.3,-1.4,yes,yes,yes,300534061986510,AXIB_53,USIABP,SIZRS,North
2022-10-13T13:59:57Z,2022,14,0,286.5833,286.5833,72.9786,-149.9778,1000.9,-1.3,-1.5,yes,yes,yes,300534061986510,AXIB_53,USIABP,SIZRS,North
2022-10-13T15:00:00Z,2022,15,0,286.625,286.625,72.9738,-149.9678,1001.1,-1.3,-1.5,yes,yes,yes,300534061986510,AXIB_53,USIABP,SIZRS,North
2022-10-13T16:00:02Z,2022,16,0,286.6667,286.6667,72.9678,-149.9576,1001.4,-1.3,-1.5,yes,yes,yes,300534061986510,AXIB_53,USIABP,SIZRS,North
2022-10-13T16:59:57Z,2022,17,0,286.7083,286.7083,72.9608,-149.9518,1002.3,-1.3,-1.4,yes,yes,yes,300534061986510,AXIB_53,USIABP,SIZRS,North
2022-10-13T18:00:00Z,2022,18,0,286.75,286.75,72.9538,-149.9504,1002.2,-1.3,-1.5,yes,yes,yes,300534061986510,AXIB_53,USIABP,SIZRS,North
2022-10-13T19:00:02Z,2022,19,0,286.7917,286.7917,72.9472,-149.9534,1002.8,-1.3,-1.4,yes,yes,yes,300534061986510,AXIB_53,USIABP,SIZRS,North
2022-10-13T19:59:57Z,2022,20,0,286.8333,286.8333,72.9418,-149.9614,1002.9,-1.3,-1.3,yes,yes,yes,300534061986510,AXIB_53,USIABP,SIZRS,North
2022-10-13T21:00:00Z,2022,21,0,286.875,286.875,72.9376,-149.9722,1003.2,-1.3,-1.4,yes,yes,yes,300534061986510,AXIB_53,USIABP,SIZRS,North
2022-10-13T22:00:02Z,2022,22,0,286.9167,286.9167,72.9354,-149.9826,1003.5,-1.3,-1.4,yes,yes,yes,300534061986510,AXIB_53,USIABP,SIZRS,North
2022-10-13T22:59:57Z,2022,23,0,286.9583,286.9583,72.9344,-149.987,1004.0,-1.3,-1.5,yes,yes,yes,300534061986510,AXIB_53,USIABP,SIZRS,North
2022-10-14T00:00:00Z,2022,0,0,287.0,287.0,72.9342,-149.984,1004.0,-1.3,-1.5,yes,yes,yes,300534061986510,AXIB_53,USIABP,SIZRS,North
2022-10-14T01:00:02Z,2022,1,0,287.0417,287.0417,72.9334,-149.9746,1004.3,-1.3,-1.9,yes,yes,yes,300534061986510,AXIB_53,USIABP,SIZRS,North
2022-10-14T01:59:57Z,2022,2,0,287.0833,287.0833,72.9316,-149.963,1004.9,-1.2,-2.7,yes,yes,yes,300534061986510,AXIB_53,USIABP,SIZRS,North
2022-10-14T03:00:00Z,2022,3,0,287.125,287.125,72.9284,-149.952,1005.3,-1.2,-2.5,yes,yes,yes,300534061986510,AXIB_53,USIABP,SIZRS,North
2022-10-14T04:00:02Z,2022,4,0,287.1667,287.1667,72.9236,-149.943,1006.1,-1.2,-2.5,yes,yes,yes,300534061986510,AXIB_53,USIABP,SIZRS,North
2022-10-14T04:59:57Z,2022,5,0,287.2083,287.2083,72.9196,-149.9398,1006.9,-1.2,-3.1,yes,yes,yes,300534061986510,AXIB_53,USIABP,SIZRS,North
2022-10-14T06:00:00Z,2022,6,0,287.25,287.25,72.9166,-149.9418,1007.1,-1.2,-3.3,yes,yes,yes,300534061986510,AXIB_53,USIABP,SIZRS,North
2022-10-14T07:00:02Z,2022,7,0,287.2917,287.2917,72.915,-149.9414,1007.6,-1.0,-2.8,yes,yes,yes,300534061986510,AXIB_53,USIABP,SIZRS,North
2022-10-14T07:59:57Z,2022,8,0,287.3333,287.3333,72.914,-149.94,1008.2,-0.9,-2.4,yes,yes,yes,300534061986510,AXIB_53,USIABP,SIZRS,North
2022-10-14T09:00:00Z,2022,9,0,287.375,287.375,72.914,-149.938,1008.7,-0.9,-2.2,yes,yes,yes,300534061986510,AXIB_53,USIABP,SIZRS,North
2022-10-14T10:00:02Z,2022,10,0,287.4167,287.4167,72.9142,-149.932,1009.3,-0.9,-1.4,yes,yes,yes,300534061986510,AXIB_53,USIABP,SIZRS,North
2022-10-14T10:59:57Z,2022,11,0,287.4583,287.4583,72.9156,-149.9248,1009.9,-0.9,-1.5,yes,yes,yes,300534061986510,AXIB_53,USIABP,SIZRS,North
2022-10-14T12:00:00Z,2022,12,0,287.5,287.5,72.9166,-149.9154,1010.2,-0.9,-1.7,yes,yes,yes,300534061986510,AXIB_53,USIABP,SIZRS,North
2022-10-14T13:00:02Z,2022,13,0,287.5417,287.5417,72.9164,-149.9042,1010.8,-0.9,-1.6,yes,yes,yes,300534061986510,AXIB_53,USIABP,SIZRS,North
2022-10-14T13:59:57Z,2022,14,0,287.5833,287.5833,72.9152,-149.8924,1011.3,-0.9,-1.7,yes,yes,yes,300534061986510,AXIB_53,USIABP,SIZRS,North
2022-10-14T15:00:00Z,2022,15,0,287.625,287.625,72.9138,-149.8822,1011.7,-0.9,-1.6,yes,yes,yes,300534061986510,AXIB_53,USIABP,SIZRS,North
2022-10-14T16:00:02Z,2022,16,0,287.6667,287.6667,72.9112,-149.8732,1012.7,-1.0,-1.4,yes,yes,yes,300534061986510,AXIB_53,USIABP,SIZRS,North
2022-10-14T16:59:57Z,2022,17,0,287.7083,287.7083,72.9084,-149.8656,1012.5,-1.0,-1.5,yes,yes,yes,300534061986510,AXIB_53,USIABP,SIZRS,North
2022-10-14T18:00:00Z,2022,18,0,287.75,287.75,72.9044,-149.8632,1013.0,-1.0,-1.4,yes,yes,yes,300534061986510,AXIB_53,USIABP,SIZRS,North
2022-10-14T19:00:02Z,2022,19,0,287.7917,287.7917,72.9002,-149.865,1014.9,-1.0,-1.5,yes,yes,yes,300534061986510,AXIB_53,USIABP,SIZRS,North
2022-10-14T19:59:57Z,2022,20,0,287.8333,287.8333,72.8966,-149.871,1015.9,-1.1,-1.4,yes,yes,yes,300534061986510,AXIB_53,USIABP,SIZRS,North
2022-10-14T21:00:00Z,2022,21,0,287.875,287.875,72.8942,-149.8802,1016.6,-1.1,-1.5,yes,yes,yes,300534061986510,AXIB_53,USIABP,SIZRS,North
2022-10-14T22:00:02Z,2022,22,0,287.9167,287.9167,72.8936,-149.8878,1017.4,-1.1,-1.5,yes,yes,yes,300534061986510,AXIB_53,USIABP,SIZRS,North
2022-10-14T22:59:57Z,2022,23,0,287.9583,287.9583,72.8986,-149.875,1018.3,-0.8,-2.1,yes,yes,yes,300534061986510,AXIB_53,USIABP,SIZRS,North
2022-10-15T00:00:00Z,2022,0,0,288.0,288.0,72.9058,-149.8576,1018.7,-0.7,-2.2,yes,yes,yes,300534061986510,AXIB_53,USIABP,SIZRS,North
2022-10-15T01:00:02Z,2022,1,0,288.0417,288.0417,72.913,-149.8348,1019.4,-0.7,-2.2,yes,yes,yes,300534061986510,AXIB_53,USIABP,SIZRS,North
2022-10-15T01:59:57Z,2022,2,0,288.0833,288.0833,72.9212,-149.8106,1020.0,-0.7,-2.1,yes,yes,yes,300534061986510,AXIB_53,USIABP,SIZRS,North
2022-10-15T03:00:00Z,2022,3,0,288.125,288.125,72.9286,-149.7884,1020.6,-0.7,-2.1,yes,yes,yes,300534061986510,AXIB_53,USIABP,SIZRS,North
2022-10-15T04:00:02Z,2022,4,0,288.1667,288.1667,72.935,-149.7684,1021.0,-0.6,-2.0,yes,yes,yes,300534061986510,AXIB_53,USIABP,SIZRS,North
2022-10-15T04:59:57Z,2022,5,0,288.2083,288.2083,72.9418,-149.7524,1021.7,-0.6,-1.9,yes,yes,yes,300534061986510,AXIB_53,USIABP,SIZRS,North
2022-10-15T06:00:00Z,2022,6,0,288.25,288.25,72.9478,-149.741,1020.8,-0.6,-1.8,yes,yes,yes,300534061986510,AXIB_53,USIABP,SIZRS,North
2022-10-15T07:00:02Z,2022,7,0,288.2917,288.2917,72.9524,-149.7366,1021.9,-0.6,-1.8,yes,yes,yes,300534061986510,AXIB_53,USIABP,SIZRS,North
2022-10-15T07:59:57Z,2022,8,0,288.3333,288.3333,72.9566,-149.7338,1021.3,-0.6,-1.5,yes,yes,yes,300534061986510,AXIB_53,USIABP,SIZRS,North
2022-10-15T09:00:00Z,2022,9,0,288.375,288.375,72.9608,-149.7312,1022.6,-0.5,-1.5,yes,yes,yes,300534061986510,AXIB_53,USIABP,SIZRS,North
2022-10-15T10:00:02Z,2022,10,0,288.4167,288.4167,72.9656,-149.7308,1022.8,-0.5,-1.7,yes,yes,yes,300534061986510,AXIB_53,USIABP,SIZRS,North
2022-10-15T10:59:57Z,2022,11,0,288.4583,288.4583,72.9718,-149.7326,1021.8,-0.5,-1.5,yes,yes,yes,300534061986510,AXIB_53,USIABP,SIZRS,North
2022-10-15T12:00:00Z,2022,12,0,288.5,288.5,72.9792,-149.7338,1021.8,-0.5,-1.6,yes,yes,yes,300534061986510,AXIB_53,USIABP,SIZRS,North
2022-10-15T13:00:02Z,2022,13,0,288.5417,288.5417,72.9884,-149.735,1021.4,-0.6,-1.8,yes,yes,yes,300534061986510,AXIB_53,USIABP,SIZRS,North
2022-10-15T13:59:57Z,2022,14,0,288.5833,288.5833,72.9996,-149.7294,1022.2,-0.6,-1.9,yes,yes,yes,300534061986510,AXIB_53,USIABP,SIZRS,North
2022-10-15T15:00:00Z,2022,15,0,288.625,288.625,73.0118,-149.7164,1020.7,-0.6,-2.3,yes,yes,yes,300534061986510,AXIB_53,USIABP,SIZRS,North
2022-10-15T16:00:02Z,2022,16,0,288.6667,288.6667,73.0256,-149.6918,1021.6,-0.6,-1.7,yes,yes,yes,300534061986510,AXIB_53,USIABP,SIZRS,North
2022-10-15T16:59:57Z,2022,17,0,288.7083,288.7083,73.0392,-149.6588,1021.5,-0.6,-1.9,yes,yes,yes,300534061986510,AXIB_53,USIABP,SIZRS,North
2022-10-15T18:00:00Z,2022,18,0,288.75,288.75,73.0508,-149.6178,1021.3,-0.7,-2.0,yes,yes,yes,300534061986510,AXIB_53,USIABP,SIZRS,North
2022-10-15T19:00:02Z,2022,19,0,288.7917,288.7917,73.061,-149.5732,1021.1,-0.7,-1.9,yes,yes,yes,300534061986510,AXIB_53,USIABP,SIZRS,North
2022-10-15T19:59:57Z,2022,20,0,288.8333,288.8333,73.0684,-149.534,1020.9,-0.8,-1.8,yes,yes,yes,300534061986510,AXIB_53,USIABP,SIZRS,North
2022-10-15T21:00:00Z,2022,21,0,288.875,288.875,73.0738,-149.494,1020.5,-0.7,-1.6,yes,yes,yes,300534061986510,AXIB_53,USIABP,SIZRS,North
2022-10-15T22:00:02Z,2022,22,0,288.9167,288.9167,73.0802,-149.4526,1020.2,-0.8,-1.6,yes,yes,yes,300534061986510,AXIB_53,USIABP,SIZRS,North
2022-10-15T22:59:57Z,2022,23,0,288.9583,288.9583,73.0872,-149.4136,1019.9,-0.9,-1.9,yes,yes,yes,300534061986510,AXIB_53,USIABP,SIZRS,North
2022-10-16T00:00:00Z,2022,0,0,289.0,289.0,73.0932,-149.3838,1019.4,-1.0,-2.1,yes,yes,yes,300534061986510,AXIB_53,USIABP,SIZRS,North
2022-10-16T01:00:02Z,2022,1,0,289.0417,289.0417,73.0992,-149.3574,1019.2,-1.1,-2.4,yes,yes,yes,300534061986510,AXIB_53,USIABP,SIZRS,North
2022-10-16T01:59:57Z,2022,2,0,289.0833,289.0833,73.1062,-149.3308,1018.9,-0.9,-2.3,yes,yes,yes,300534061986510,AXIB_53,USIABP,SIZRS,North
2022-10-16T03:00:00Z,2022,3,0,289.125,289.125,73.1164,-149.3148,1018.7,-1.0,-2.2,yes,yes,yes,300534061986510,AXIB_53,USIABP,SIZRS,North
2022-10-16T04:00:02Z,2022,4,0,289.1667,289.1667,73.1236,-149.3134,1018.6,-0.9,-2.3,yes,yes,yes,300534061986510,AXIB_53,USIABP,SIZRS,North
2022-10-16T04:59:57Z,2022,5,0,289.2083,289.2083,73.1296,-149.2964,1018.5,-0.9,-2.1,yes,yes,yes,300534061986510,AXIB_53,USIABP,SIZRS,North
2022-10-16T06:00:00Z,2022,6,0,289.25,289.25,73.1372,-149.2654,1018.3,-1.0,-1.9,yes,yes,yes,300534061986510,AXIB_53,USIABP,SIZRS,North
2022-10-16T07:00:02Z,2022,7,0,289.2917,289.2917,73.1454,-149.2388,1018.4,-0.9,-2.0,yes,yes,yes,300534061986510,AXIB_53,USIABP,SIZRS,North
2022-10-16T07:59:57Z,2022,8,0,289.3333,289.3333,73.1494,-149.2176,1018.4,-0.9,-1.6,yes,yes,yes,300534061986510,AXIB_53,USIABP,SIZRS,North
2022-10-16T09:00:00Z,2022,9,0,289.375,289.375,73.1514,-149.1938,1018.4,-1.0,-1.6,yes,yes,yes,300534061986510,AXIB_53,USIABP,SIZRS,North
2022-10-16T10:00:02Z,2022,10,0,289.4167,289.4167,73.1522,-149.1694,1018.2,-1.0,-1.5,yes,yes,yes,300534061986510,AXIB_53,USIABP,SIZRS,North
2022-10-16T10:59:57Z,2022,11,0,289.4583,289.4583,73.1534,-149.1488,1017.7,-1.0,-1.5,yes,yes,yes,300534061986510,AXIB_53,USIABP,SIZRS,North
2022-10-16T12:00:00Z,2022,12,0,289.5,289.5,73.1554,-149.1374,1017.2,-1.0,-1.5,yes,yes,yes,300534061986510,AXIB_53,USIABP,SIZRS,North
2022-10-16T13:00:02Z,2022,13,0,289.5417,289.5417,73.159,-149.1374,1017.1,-1.0,-1.5,yes,yes,yes,300534061986510,AXIB_53,USIABP,SIZRS,North
2022-10-16T13:59:57Z,2022,14,0,289.5833,289.5833,73.1642,-149.1384,1016.2,-1.0,-1.6,yes,yes,yes,300534061986510,AXIB_53,USIABP,SIZRS,North
2022-10-16T15:00:00Z,2022,15,0,289.625,289.625,73.1724,-149.134,1015.7,-1.0,-1.4,yes,yes,yes,300534061986510,AXIB_53,USIABP,SIZRS,North
2022-10-16T16:00:02Z,2022,16,0,289.6667,289.6667,73.184,-149.125,1015.3,-1.0,-1.5,yes,yes,yes,300534061986510,AXIB_53,USIABP,SIZRS,North
2022-10-16T16:59:57Z,2022,17,0,289.7083,289.7083,73.1958,-149.112,1015.0,-1.0,-1.3,yes,yes,yes,300534061986510,AXIB_53,USIABP,SIZRS,North
2022-10-16T18:00:00Z,2022,18,0,289.75,289.75,73.207,-149.1014,1015.1,-1.0,-1.4,yes,yes,yes,300534061986510,AXIB_53,USIABP,SIZRS,North
2022-10-16T19:00:02Z,2022,19,0,289.7917,289.7917,73.2174,-149.0938,1014.7,-1.0,-1.5,yes,yes,yes,300534061986510,AXIB_53,USIABP,SIZRS,North
2022-10-16T19:59:57Z,2022,20,0,289.8333,289.8333,73.227,-149.085,1015.1,-1.0,-1.5,yes,yes,yes,300534061986510,AXIB_53,USIABP,SIZRS,North
2022-10-16T21:00:00Z,2022,21,0,289.875,289.875,73.2336,-149.0758,1014.9,-1.0,-1.6,yes,yes,yes,300534061986510,AXIB_53,USIABP,SIZRS,North
2022-10-16T22:00:02Z,2022,22,0,289.9167,289.9167,73.2384,-149.0716,1013.3,-1.0,-1.5,yes,yes,yes,300534061986510,AXIB_53,USIABP,SIZRS,North
2022-10-16T22:59:57Z,2022,23,0,289.9583,289.9583,73.2434,-149.0756,1015.6,-1.0,-1.5,yes,yes,yes,300534061986510,AXIB_53,USIABP,SIZRS,North
2022-10-17T00:00:00Z,2022,0,0,290.0,290.0,73.2488,-149.0866,1016.0,-1.0,-1.5,yes,yes,yes,300534061986510,AXIB_53,USIABP,SIZRS,North
2022-10-17T01:00:02Z,2022,1,0,290.0417,290.0417,73.2554,-149.0992,1016.7,-1.0,-1.5,yes,yes,yes,300534061986510,AXIB_53,USIABP,SIZRS,North
2022-10-17T01:59:57Z,2022,2,0,290.0833,290.0833,73.2632,-149.1146,1017.5,-1.0,-1.6,yes,yes,yes,300534061986510,AXIB_53,USIABP,SIZRS,North
2022-10-17T03:00:00Z,2022,3,0,290.125,290.125,73.2728,-149.1308,1017.6,-1.0,-1.6,yes,yes,yes,300534061986510,AXIB_53,USIABP,SIZRS,North
2022-10-17T04:00:02Z,2022,4,0,290.1667,290.1667,73.2832,-149.144,1015.5,-1.0,-1.6,yes,yes,yes,300534061986510,AXIB_53,USIABP,SIZRS,North
2022-10-17T04:59:57Z,2022,5,0,290.2083,290.2083,73.2934,-149.1538,1017.6,-1.0,-1.5,yes,yes,yes,300534061986510,AXIB_53,USIABP,SIZRS,North
2022-10-17T06:00:00Z,2022,6,0,290.25,290.25,73.303,-149.1592,1017.6,-1.0,-1.5,yes,yes,yes,300534061986510,AXIB_53,USIABP,SIZRS,North
2022-10-17T07:00:02Z,2022,7,0,290.2917,290.2917,73.3118,-149.1622,1017.6,-1.1,-1.4,yes,yes,yes,300534061986510,AXIB_53,USIABP,SIZRS,North
2022-10-17T07:59:57Z,2022,8,0,290.3333,290.3333,73.3196,-149.1652,1017.2,-1.1,-1.5,yes,yes,yes,300534061986510,AXIB_53,USIABP,SIZRS,North
2022-10-17T09:00:00Z,2022,9,0,290.375,290.375,73.3266,-149.1684,1017.0,-1.2,-1.5,yes,yes,yes,300534061986510,AXIB_53,USIABP,SIZRS,North
2022-10-17T10:00:02Z,2022,10,0,290.4167,290.4167,73.3328,-149.1752,1016.7,-1.3,-1.4,yes,yes,yes,300534061986510,AXIB_53,USIABP,SIZRS,North
2022-10-17T10:59:57Z,2022,11,0,290.4583,290.4583,73.3372,-149.1854,1016.5,-1.3,-1.4,yes,yes,yes,300534061986510,AXIB_53,USIABP,SIZRS,North
2022-10-17T12:00:00Z,2022,12,0,290.5,290.5,73.3398,-149.1964,1016.2,-1.4,-1.4,yes,yes,yes,300534061986510,AXIB_53,USIABP,SIZRS,North
2022-10-17T13:00:02Z,2022,13,0,290.5417,290.5417,73.3414,-149.2084,1016.1,-1.5,-1.5,yes,yes,yes,300534061986510,AXIB_53,USIABP,SIZRS,North
2022-10-17T13:59:57Z,2022,14,0,290.5833,290.5833,73.3418,-149.2222,1016.2,-1.4,-1.7,yes,yes,yes,300534061986510,AXIB_53,USIABP,SIZRS,North
2022-10-17T15:00:00Z,2022,15,0,290.625,290.625,73.3414,-149.2396,1016.1,-1.4,-1.5,yes,yes,yes,300534061986510,AXIB_53,USIABP,SIZRS,North
2022-10-17T16:00:02Z,2022,16,0,290.6667,290.6667,73.3424,-149.2576,1016.1,-1.4,-1.4,yes,yes,yes,300534061986510,AXIB_53,USIABP,SIZRS,North
2022-10-17T16:59:57Z,2022,17,0,290.7083,290.7083,73.345,-149.2734,1016.2,-1.4,-1.5,yes,yes,yes,300534061986510,AXIB_53,USIABP,SIZRS,North
2022-10-17T18:00:00Z,2022,18,0,290.75,290.75,73.348,-149.2872,1016.4,-1.4,-1.4,yes,yes,yes,300534061986510,AXIB_53,USIABP,SIZRS,North
2022-10-17T19:00:02Z,2022,19,0,290.7917,290.7917,73.351,-149.2964,1016.3,-1.4,-1.4,yes,yes,yes,300534061986510,AXIB_53,USIABP,SIZRS,North
2022-10-17T19:59:57Z,2022,20,0,290.8333,290.8333,73.354,-149.304,1016.2,-1.4,-1.4,yes,yes,yes,300534061986510,AXIB_53,USIABP,SIZRS,North
2022-10-17T21:00:00Z,2022,21,0,290.875,290.875,73.3568,-149.3118,1016.4,-1.4,-1.4,yes,yes,yes,300534061986510,AXIB_53,USIABP,SIZRS,North
2022-10-17T22:00:02Z,2022,22,0,290.9167,290.9167,73.3582,-149.3184,1013.2,-1.3,-1.6,yes,yes,yes,300534061986510,AXIB_53,USIABP,SIZRS,North
2022-10-17T22:59:57Z,2022,23,0,290.9583,290.9583,73.3586,-149.3348,1014.0,-1.6,-1.4,yes,yes,yes,300534061986510,AXIB_53,USIABP,SIZRS,North
2022-10-18T00:00:00Z,2022,0,0,291.0,291.0,73.3536,-149.3672,1011.5,-1.4,-1.9,yes,yes,yes,300534061986510,AXIB_53,USIABP,SIZRS,North
2022-10-18T01:00:02Z,2022,1,0,291.0417,291.0417,73.3464,-149.4,1009.3,-1.3,-5.8,yes,yes,yes,300534061986510,AXIB_53,USIABP,SIZRS,North
2022-10-18T01:59:57Z,2022,2,0,291.0833,291.0833,73.3392,-149.4316,1008.4,-1.3,-6.7,yes,yes,yes,300534061986510,AXIB_53,USIABP,SIZRS,North
2022-10-18T03:00:00Z,2022,3,0,291.125,291.125,73.3328,-149.4622,1007.6,-1.3,-6.8,yes,yes,yes,300534061986510,AXIB_53,USIABP,SIZRS,North
2022-10-18T04:00:02Z,2022,4,0,291.1667,291.1667,73.3266,-149.4922,1007.6,-1.3,-6.8,yes,yes,yes,300534061986510,AXIB_53,USIABP,SIZRS,North
2022-10-18T04:59:57Z,2022,5,0,291.2083,291.2083,73.3194,-149.5184,1007.4,-1.3,-6.8,yes,yes,yes,300534061986510,AXIB_53,USIABP,SIZRS,North
2022-10-18T06:00:00Z,2022,6,0,291.25,291.25,73.3114,-149.542,1007.3,-1.3,-6.8,yes,yes,yes,300534061986510,AXIB_53,USIABP,SIZRS,North
2022-10-18T07:00:02Z,2022,7,0,291.2917,291.2917,73.3032,-149.5622,1007.3,-1.3,-6.7,yes,yes,yes,300534061986510,AXIB_53,USIABP,SIZRS,North
2022-10-18T07:59:57Z,2022,8,0,291.3333,291.3333,73.2954,-149.578,1007.4,-1.3,-6.6,yes,yes,yes,300534061986510,AXIB_53,USIABP,SIZRS,North
2022-10-18T09:00:00Z,2022,9,0,291.375,291.375,73.287,-149.5914,1007.4,-1.3,-6.7,yes,yes,yes,300534061986510,AXIB_53,USIABP,SIZRS,North
2022-10-18T10:00:02Z,2022,10,0,291.4167,291.4167,73.2776,-149.6038,1007.6,-1.4,-6.6,yes,yes,yes,300534061986510,AXIB_53,USIABP,SIZRS,North
2022-10-18T10:59:57Z,2022,11,0,291.4583,291.4583,73.2686,-149.6162,1007.7,-1.4,-6.5,yes,yes,yes,300534061986510,AXIB_53,USIABP,SIZRS,North
2022-10-18T12:00:00Z,2022,12,0,291.5,291.5,73.2588,-149.6264,1007.8,-1.4,-6.5,yes,yes,yes,300534061986510,AXIB_53,USIABP,SIZRS,North
2022-10-18T13:00:02Z,2022,13,0,291.5417,291.5417,73.249,-149.6386,1007.7,-1.4,-6.5,yes,yes,yes,300534061986510,AXIB_53,USIABP,SIZRS,North
2022-10-18T13:59:57Z,2022,14,0,291.5833,291.5833,73.2396,-149.6528,1007.8,-1.4,-6.4,yes,yes,yes,300534061986510,AXIB_53,USIABP,SIZRS,North
2022-10-18T15:00:00Z,2022,15,0,291.625,291.625,73.2308,-149.6652,1007.7,-1.3,-6.4,yes,yes,yes,300534061986510,AXIB_53,USIABP,SIZRS,North
2022-10-18T16:00:02Z,2022,16,0,291.6667,291.6667,73.2222,-149.6774,1007.8,-1.3,-6.4,yes,yes,yes,300534061986510,AXIB_53,USIABP,SIZRS,North
2022-10-18T16:59:57Z,2022,17,0,291.7083,291.7083,73.215,-149.6896,1008.1,-1.3,-6.2,yes,yes,yes,300534061986510,AXIB_53,USIABP,SIZRS,North
2022-10-18T18:00:00Z,2022,18,0,291.75,291.75,73.21,-149.6954,1008.2,-1.4,-6.2,yes,yes,yes,300534061986510,AXIB_53,USIABP,SIZRS,North
2022-10-18T19:00:02Z,2022,19,0,291.7917,291.7917,73.2034,-149.7024,1008.8,-1.4,-4.7,yes,yes,yes,300534061986510,AXIB_53,USIABP,SIZRS,North
2022-10-18T19:59:57Z,2022,20,0,291.8333,291.8333,73.198,-149.6938,1008.9,-1.4,-5.8,yes,yes,yes,300534061986510,AXIB_53,USIABP,SIZRS,North
2022-10-18T21:00:00Z,2022,21,0,291.875,291.875,73.1926,-149.6908,1009.2,-1.4,-5.8,yes,yes,yes,300534061986510,AXIB_53,USIABP,SIZRS,North
2022-10-18T22:00:02Z,2022,22,0,291.9167,291.9167,73.1886,-149.69,1009.3,-1.4,-5.8,yes,yes,yes,300534061986510,AXIB_53,USIABP,SIZRS,North
2022-10-18T22:59:57Z,2022,23,0,291.9583,291.9583,73.1834,-149.6934,1009.4,-1.4,-5.7,yes,yes,yes,300534061986510,AXIB_53,USIABP,SIZRS,North
2022-10-19T00:00:00Z,2022,0,0,292.0,292.0,73.1788,-149.7012,1009.4,-1.4,-5.8,yes,yes,yes,300534061986510,AXIB_53,USIABP,SIZRS,North
2022-10-19T01:00:02Z,2022,1,0,292.0417,292.0417,73.1752,-149.7056,1009.3,-1.4,-5.9,yes,yes,yes,300534061986510,AXIB_53,USIABP,SIZRS,North
2022-10-19T01:59:57Z,2022,2,0,292.0833,292.0833,73.1712,-149.7058,1009.1,-1.4,-5.9,yes,yes,yes,300534061986510,AXIB_53,USIABP,SIZRS,North
2022-10-19T03:00:00Z,2022,3,0,292.125,292.125,73.1662,-149.7064,1009.1,-1.4,-5.8,yes,yes,yes,300534061986510,AXIB_53,USIABP,SIZRS,North
2022-10-19T04:00:02Z,2022,4,0,292.1667,292.1667,73.1622,-149.706,1009.2,-1.4,-6.0,yes,yes,yes,300534061986510,AXIB_53,USIABP,SIZRS,North
2022-10-19T04:59:57Z,2022,5,0,292.2083,292.2083,73.1594,-149.7054,1009.2,-1.4,-6.0,yes,yes,yes,300534061986510,AXIB_53,USIABP,SIZRS,North
2022-10-19T06:00:00Z,2022,6,0,292.25,292.25,73.158,-149.7008,1009.4,-1.4,-5.9,yes,yes,yes,300534061986510,AXIB_53,USIABP,SIZRS,North
2022-10-19T07:00:02Z,2022,7,0,292.2917,292.2917,73.1572,-149.6976,1009.6,-1.4,-5.8,yes,yes,yes,300534061986510,AXIB_53,USIABP,SIZRS,North
2022-10-19T07:59:57Z,2022,8,0,292.3333,292.3333,73.1574,-149.6922,1009.6,-1.4,-5.6,yes,yes,yes,300534061986510,AXIB_53,USIABP,SIZRS,North
2022-10-19T09:00:00Z,2022,9,0,292.375,292.375,73.1576,-149.6846,1009.7,-1.4,-5.6,yes,yes,yes,300534061986510,AXIB_53,USIABP,SIZRS,North
2022-10-19T10:00:02Z,2022,10,0,292.4167,292.4167,73.1576,-149.68,1009.7,-1.4,-5.4,yes,yes,yes,300534061986510,AXIB_53,USIABP,SIZRS,North
2022-10-19T10:59:57Z,2022,11,0,292.4583,292.4583,73.1582,-149.681,1009.7,-1.4,-5.4,yes,yes,yes,300534061986510,AXIB_53,USIABP,SIZRS,North
2022-10-19T12:00:00Z,2022,12,0,292.5,292.5,73.1604,-149.6824,1009.9,-1.4,-5.3,yes,yes,yes,300534061986510,AXIB_53,USIABP,SIZRS,North
2022-10-19T13:00:02Z,2022,13,0,292.5417,292.5417,73.163,-149.6852,1010.2,-1.4,-5.0,yes,yes,yes,300534061986510,AXIB_53,USIABP,SIZRS,North
2022-10-19T13:59:57Z,2022,14,0,292.5833,292.5833,73.166,-149.688,1010.3,-1.4,-4.8,yes,yes,yes,300534061986510,AXIB_53,USIABP,SIZRS,North
2022-10-19T15:00:00Z,2022,15,0,292.625,292.625,73.1686,-149.689,1010.4,-1.4,-4.8,yes,yes,yes,300534061986510,AXIB_53,USIABP,SIZRS,North
2022-10-19T16:00:02Z,2022,16,0,292.6667,292.6667,73.1714,-149.6894,1010.7,-1.4,-4.7,yes,yes,yes,300534061986510,AXIB_53,USIABP,SIZRS,North
2022-10-19T16:59:57Z,2022,17,0,292.7083,292.7083,73.173,-149.6908,1010.8,-1.4,-4.6,yes,yes,yes,300534061986510,AXIB_53,USIABP,SIZRS,North
2022-10-19T18:00:00Z,2022,18,0,292.75,292.75,73.1742,-149.697,1010.9,-1.4,-4.6,yes,yes,yes,300534061986510,AXIB_53,USIABP,SIZRS,North
2022-10-19T19:00:02Z,2022,19,0,292.7917,292.7917,73.1752,-149.707,1011.1,-1.4,-4.6,yes,yes,yes,300534061986510,AXIB_53,USIABP,SIZRS,North
2022-10-19T19:59:57Z,2022,20,0,292.8333,292.8333,73.1766,-149.7222,1011.4,-1.4,-4.4,yes,yes,yes,300534061986510,AXIB_53,USIABP,SIZRS,North
2022-10-19T21:00:00Z,2022,21,0,292.875,292.875,73.1782,-149.7392,1011.7,-1.4,-4.2,yes,yes,yes,300534061986510,AXIB_53,USIABP,SIZRS,North
2022-10-19T22:00:02Z,2022,22,0,292.9167,292.9167,73.1804,-149.7584,1012.0,-1.4,-4.1,yes,yes,yes,300534061986510,AXIB_53,USIABP,SIZRS,North
2022-10-19T22:59:57Z,2022,23,0,292.9583,292.9583,73.183,-149.7782,1012.4,-1.4,-4.0,yes,yes,yes,300534061986510,AXIB_53,USIABP,SIZRS,North